| time (UTC) | temp F | wind direction | speed MPH | gust MPH | rain 1hr in | rain 24hr in | rain mn in | humidity % | barometer mb |
| 20260505210047 | 62 | 188 | 5.0 | 8.0 | 0.00 | 0.00 | 0.00 | 78 | 1012.9 |
| 20260505204550 | 61 | 125 | 3.0 | 9.0 | 0.00 | 0.00 | 0.00 | 78 | 1013.0 |
| 20260505203038 | 61 | 196 | 3.0 | 8.0 | 0.00 | 0.00 | 0.00 | 78 | 1013.0 |
| 20260505201539 | 61 | 194 | 3.0 | 8.0 | 0.00 | 0.00 | 0.00 | 79 | 1013.0 |
| 20260505200036 | 61 | 244 | 3.0 | 8.0 | 0.00 | 0.00 | 0.00 | 79 | 1013.1 |
| 20260505194534 | 60 | 185 | 4.0 | 8.0 | 0.00 | 0.00 | 0.00 | 79 | 1013.0 |
| 20260505193040 | 61 | 185 | 3.0 | 8.0 | 0.00 | 0.00 | 0.00 | 80 | 1013.1 |
| 20260505191532 | 60 | 209 | 3.0 | 7.0 | 0.00 | 0.00 | 0.00 | 80 | 1013.1 |
| 20260505190028 | 59 | 187 | 4.0 | 8.0 | 0.00 | 0.00 | 0.00 | 81 | 1013.1 |
| 20260505184528 | 58 | 184 | 1.0 | 7.0 | 0.00 | 0.00 | 0.00 | 81 | 1012.9 |
| 20260505183035 | 59 | 196 | 2.0 | 6.0 | 0.00 | 0.00 | 0.00 | 81 | 1013.0 |
| 20260505181529 | 59 | 204 | 1.0 | 7.0 | 0.00 | 0.00 | 0.00 | 79 | 1012.9 |
| 20260505180026 | 59 | 213 | 1.0 | 4.0 | 0.00 | 0.00 | 0.00 | 82 | 1012.9 |
| 20260505174522 | 58 | 184 | 3.0 | 5.0 | 0.00 | 0.01 | 0.00 | 81 | 1012.9 |
| 20260505173021 | 58 | 180 | 1.0 | 4.0 | 0.00 | 0.01 | 0.00 | 82 | 1012.8 |
| 20260505171519 | 58 | 222 | 0.0 | 2.0 | 0.00 | 0.01 | 0.00 | 83 | 1012.7 |
| 20260505170018 | 57 | 217 | 1.0 | 3.0 | 0.00 | 0.01 | 0.00 | 83 | 1012.6 |
| 20260505164517 | 57 | 228 | 1.0 | 6.0 | 0.00 | 0.01 | 0.00 | 84 | 1012.7 |
| 20260505163016 | 57 | 222 | 1.0 | 4.0 | 0.00 | 0.01 | 0.00 | 82 | 1012.6 |
| 20260505161514 | 57 | 213 | 0.0 | 1.0 | 0.00 | 0.01 | 0.00 | 85 | 1012.6 |
| 20260505153007 | 56 | 200 | 0.0 | 3.0 | 0.00 | 0.01 | 0.00 | 90 | 1012.6 |
| 20260505151502 | 55 | 199 | 0.0 | 0.0 | 0.00 | 0.01 | 0.00 | 94 | 1012.4 |
| 20260505124550 | 52 | 199 | 0.0 | 0.0 | 0.00 | 0.01 | 0.00 | 96 | 1012.1 |
| 20260505123049 | 52 | 199 | 0.0 | 0.0 | 0.00 | 0.01 | 0.00 | 96 | 1012.1 |
| 20260505121542 | 53 | 199 | 0.0 | 0.0 | 0.00 | 0.01 | 0.00 | 96 | 1011.9 |
| 20260505120049 | 53 | 199 | 0.0 | 0.0 | 0.00 | 0.01 | 0.00 | 96 | 1011.9 |
| 20260505114542 | 53 | 199 | 0.0 | 0.0 | 0.00 | 0.01 | 0.00 | 96 | 1011.8 |
| 20260505113047 | 53 | 199 | 0.0 | 0.0 | 0.00 | 0.01 | 0.00 | 96 | 1011.7 |
| 20260505111539 | 53 | 199 | 0.0 | 0.0 | 0.00 | 0.01 | 0.00 | 96 | 1011.7 |
| 20260505101535 | 53 | 199 | 0.0 | 0.0 | 0.00 | 0.01 | 0.00 | 96 | 1011.7 |
| 20260505100035 | 53 | 199 | 0.0 | 0.0 | 0.00 | 0.01 | 0.00 | 95 | 1011.7 |
| 20260505094534 | 53 | 199 | 0.0 | 0.0 | 0.00 | 0.01 | 0.00 | 95 | 1011.8 |
| 20260505093032 | 53 | 199 | 0.0 | 0.0 | 0.00 | 0.01 | 0.00 | 95 | 1011.9 |
| 20260505091530 | 53 | 199 | 0.0 | 0.0 | 0.00 | 0.01 | 0.00 | 95 | 1011.9 |
| 20260505090028 | 53 | 199 | 0.0 | 0.0 | 0.00 | 0.01 | 0.00 | 95 | 1012.1 |
| 20260505084542 | 53 | 199 | 0.0 | 0.0 | 0.00 | 0.01 | 0.00 | 95 | 1012.3 |
| 20260505083026 | 53 | 199 | 0.0 | 0.0 | 0.00 | 0.01 | 0.00 | 95 | 1012.3 |
| 20260505081524 | 53 | 199 | 0.0 | 0.0 | 0.00 | 0.01 | 0.00 | 95 | 1012.3 |
| 20260505080023 | 53 | 199 | 0.0 | 0.0 | 0.00 | 0.01 | 0.00 | 95 | 1012.4 |
| 20260505074523 | 53 | 199 | 0.0 | 0.0 | 0.00 | 0.02 | 0.00 | 95 | 1012.5 |
| 20260505073022 | 53 | 199 | 0.0 | 0.0 | 0.00 | 0.02 | 0.00 | 95 | 1012.5 |
| 20260505071520 | 53 | 199 | 0.0 | 0.0 | 0.00 | 0.02 | 0.00 | 95 | 1012.4 |
| 20260505070018 | 53 | 199 | 0.0 | 0.0 | 0.00 | 0.02 | 0.00 | 95 | 1012.4 |
| 20260505064519 | 53 | 199 | 0.0 | 0.0 | 0.00 | 0.03 | 0.02 | 95 | 1012.4 |
| 20260505063020 | 53 | 199 | 0.0 | 1.0 | 0.00 | 0.03 | 0.02 | 95 | 1012.3 |
| 20260505061520 | 53 | 199 | 0.0 | 0.0 | 0.00 | 0.03 | 0.02 | 94 | 1012.4 |
| 20260505060016 | 53 | 199 | 0.0 | 0.0 | 0.00 | 0.03 | 0.02 | 94 | 1012.4 |
| 20260505054515 | 53 | 199 | 0.0 | 0.0 | 0.00 | 0.03 | 0.02 | 94 | 1012.4 |
| 20260505053019 | 53 | 199 | 0.0 | 0.0 | 0.00 | 0.03 | 0.02 | 94 | 1012.5 |
| 20260505051518 | 53 | 199 | 0.0 | 0.0 | 0.00 | 0.03 | 0.02 | 94 | 1012.4 |
| 20260505041513 | 54 | 199 | 0.0 | 1.0 | 0.00 | 0.03 | 0.02 | 94 | 1012.3 |
| 20260505040013 | 54 | 199 | 0.0 | 1.0 | 0.00 | 0.03 | 0.02 | 93 | 1012.0 |
| 20260505034512 | 54 | 199 | 0.0 | 0.0 | 0.00 | 0.03 | 0.02 | 93 | 1011.8 |
| 20260505033112 | 54 | 199 | 0.0 | 1.0 | 0.00 | 0.03 | 0.02 | 93 | 1011.6 |
| 20260505031515 | 54 | 199 | 0.0 | 0.0 | 0.00 | 0.03 | 0.02 | 93 | 1011.4 |
| 20260505030010 | 55 | 199 | 0.0 | 1.0 | 0.00 | 0.03 | 0.02 | 93 | 1011.3 |
| 20260505024511 | 55 | 199 | 0.0 | 0.0 | 0.00 | 0.05 | 0.02 | 92 | 1011.3 |
| 20260505023010 | 55 | 199 | 0.0 | 0.0 | 0.00 | 0.05 | 0.02 | 92 | 1011.3 |
| 20260505021508 | 55 | 199 | 0.0 | 1.0 | 0.00 | 0.05 | 0.02 | 92 | 1011.3 |
| 20260505020012 | 55 | 199 | 0.0 | 2.0 | 0.00 | 0.05 | 0.02 | 92 | 1011.4 |
| 20260505014509 | 55 | 199 | 0.0 | 2.0 | 0.00 | 0.17 | 0.02 | 91 | 1011.7 |
| 20260505013008 | 55 | 199 | 1.0 | 3.0 | 0.00 | 0.17 | 0.02 | 91 | 1011.8 |
| 20260505011507 | 55 | 199 | 1.0 | 4.0 | 0.00 | 0.17 | 0.02 | 90 | 1011.9 |
| 20260505010014 | 56 | 219 | 1.0 | 4.0 | 0.00 | 0.17 | 0.02 | 90 | 1011.8 |
| 20260505004507 | 57 | 187 | 1.0 | 4.0 | 0.00 | 0.17 | 0.02 | 89 | 1011.8 |
| 20260505003005 | 58 | 207 | 0.0 | 2.0 | 0.00 | 0.17 | 0.02 | 89 | 1011.7 |
| 20260505001508 | 58 | 208 | 0.0 | 3.0 | 0.00 | 0.17 | 0.02 | 89 | 1011.7 |
| 20260505000004 | 58 | 212 | 1.0 | 3.0 | 0.00 | 0.17 | 0.02 | 87 | 1011.6 |
| 20260504234504 | 58 | 170 | 1.0 | 3.0 | 0.00 | 0.17 | 0.02 | 87 | 1011.8 |
| 20260504233003 | 58 | 212 | 1.0 | 3.0 | 0.00 | 0.17 | 0.02 | 86 | 1011.7 |
| 20260504231504 | 58 | 207 | 3.0 | 5.0 | 0.00 | 0.17 | 0.02 | 84 | 1011.7 |
| 20260504230002 | 58 | 207 | 1.0 | 4.0 | 0.00 | 0.17 | 0.02 | 86 | 1011.8 |
| 20260504224505 | 58 | 223 | 2.0 | 4.0 | 0.00 | 0.17 | 0.02 | 85 | 1012.0 |
| 20260504223100 | 57 | 213 | 2.0 | 3.0 | 0.00 | 0.17 | 0.02 | 86 | 1012.1 |
| 20260504221559 | 58 | 210 | 2.0 | 4.0 | 0.00 | 0.17 | 0.02 | 87 | 1012.2 |
| 20260504214607 | 58 | 220 | 2.0 | 5.0 | 0.00 | 0.17 | 0.02 | 86 | 1012.3 |
| 20260504213058 | 58 | 236 | 1.0 | 5.0 | 0.00 | 0.17 | 0.02 | 87 | 1012.3 |
| 20260504211557 | 58 | 217 | 1.0 | 5.0 | 0.00 | 0.17 | 0.02 | 88 | 1012.4 |